sat.trackr.live / text

‹ back to catalog

STARLINK-31919

NORAD 59880 · 2024-098Y

PAYLOAD ACTIVE UNKNOWN

§ Identity

Operator
Country
US
Launch date
2024-05-24
Launch site
AFETR
Launch vehicle
Mass (kg)
RCS (m²)

Purposes: comms

External: N2YO · Heavens-Above · Gunter

§ Orbital elements

Epoch: 2026-09-21T10:38:15.784800Z

Period
94.27 min
Inclination
43.0022°
Eccentricity
0.0001118
Mean motion
15.27580773 rev/d
Perigee alt
482.3 km
Apogee alt
483.8 km
Semi-major
6,861.2 km
B*
4.0527e-5
RAAN
252.5243°
Arg perigee
267.3844°
Mean anomaly
92.6879°
Rev number
13,178

§ Raw data

STARLINK-319191 59880U 24098Y   26264.44323825  .00000853  00000+0  40527-4 0  99912 59880  43.0022 252.5243 0001118 267.3844  92.6879 15.27580773131787

JSON: /api/v1/satellites/59880 · /tle

For live sub-satellite position, see the globe view (requires WebGL).

§ Visibility from observer

Set your observer location to see the next 7 days of passes ≥ 10°. The values pass through the URL so the page stays shareable.

No JS? Fill the form by hand. The geolocation button needs JavaScript.